This is the latest recevied weather packets stored in our database for station/object K8JCL-13. If no packets are shown the sender has not sent any weather packets the latest 10 day(s).
| Time | Temp. | Humidity | Pressure | Rain* | Wind** | Luminosity | Snow |
|---|---|---|---|---|---|---|---|
| 1777936444 | 22.22° C | 57% | 1005.5 hPa | 0 mm | - | 41 W/m² | - |
| 1777936141 | 22.22° C | 58% | 1005.6 hPa | 0 mm | - | 44 W/m² | - |
| 1777935838 | 22.22° C | 58% | 1005.6 hPa | 0 mm | - | 55 W/m² | - |
| 1777935537 | 22.22° C | 58% | 1005.7 hPa | 0 mm | - | 40 W/m² | - |
| 1777935233 | 22.22° C | 56% | 1006.1 hPa | 0 mm | - | 45 W/m² | - |
| 1777934931 | 22.22° C | 57% | 1005.8 hPa | 0 mm | - | 65 W/m² | - |
| 1777934627 | 21.67° C | 61% | 1006 hPa | 0 mm | - | 87 W/m² | - |
| 1777934324 | 21.67° C | 61% | 1006.2 hPa | 0 mm | - | 71 W/m² | - |
| 1777934019 | 21.67° C | 59% | 1006.3 hPa | 0 mm | - | 42 W/m² | - |
| 1777933716 | 21.67° C | 59% | 1006.3 hPa | 0 mm | - | 37 W/m² | - |
| 1777933413 | 22.22° C | 60% | 1006.4 hPa | 0 mm | - | 47 W/m² | - |
| 1777933112 | 22.22° C | 59% | 1006.3 hPa | 0 mm | - | 60 W/m² | - |
| 1777932808 | 21.67° C | 58% | 1006.1 hPa | 0 mm | - | 91 W/m² | - |
| 1777932505 | 21.67° C | 60% | 1006.2 hPa | 0 mm | - | 89 W/m² | - |
| 1777932202 | 21.67° C | 59% | 1006.4 hPa | 0 mm | - | 103 W/m² | - |
| 1777931899 | 21.67° C | 60% | 1006.4 hPa | 0 mm | - | 118 W/m² | - |
| 1777931595 | 21.67° C | 60% | 1005.9 hPa | 0 mm | - | 106 W/m² | - |
| 1777931291 | 21.11° C | 59% | 1006.2 hPa | 0 mm | - | 95 W/m² | - |
| 1777930989 | 21.67° C | 59% | 1006.6 hPa | 0 mm | - | 78 W/m² | - |
| 1777930685 | 21.67° C | 60% | 1006.8 hPa | 0 mm | - | 75 W/m² | - |
| 1777930381 | 22.22° C | 59% | 1006.7 hPa | 0 mm | - | 58 W/m² | - |
| 1777930078 | 22.22° C | 60% | 1006.6 hPa | 0 mm | - | 84 W/m² | - |
| 1777929774 | 21.67° C | 62% | 1006.7 hPa | 0 mm | - | 101 W/m² | - |
| 1777929472 | 21.67° C | 61% | 1006.7 hPa | 0 mm | - | 142 W/m² | - |
| 1777929168 | 21.11° C | 64% | 1006.7 hPa | 0 mm | - | 142 W/m² | - |
* Rain latest hour (hover to see other rain measurements)
** Current wind speed in m/s (hover to see current wind gust speed)